QPF
0.05 0.05 0.04 0.04 0.04 0.05 0.05 0.04 0.04 0.03 0.02 0.01 0.01 0.01 0.01 0.01 0.01 0.00 0.00 0.00 0.00 0.00 0.01 0.01 0.01 0.02 0.03 0.04 0.04 0.04 0.05 0.06 0.07 0.08 0.09 0.10 0.12 0.13
0.06 0.05 0.05 0.04 0.04 0.05 0.04 0.04 0.04 0.05 0.04 0.03 0.01 0.01 0.01 0.01 0.01 0.01 0.00 0.00 0.00 0.00 0.00 0.00 0.01 0.01 0.01 0.02 0.03 0.03 0.03 0.04 0.05 0.07 0.08 0.09 0.10 0.12
0.05 0.04 0.04 0.04 0.04 0.04 0.03 0.03 0.04 0.04 0.05 0.04 0.03 0.03 0.03 0.02 0.02 0.02 0.01 0.01 0.00 0.00 0.00 0.00 0.01 0.01 0.02 0.03 0.04 0.04 0.03 0.03 0.04 0.04 0.06 0.08 0.10 0.10
0.02 0.03 0.04 0.05 0.05 0.04 0.04 0.04 0.04 0.04 0.04 0.03 0.03 0.03 0.04 0.05 0.04 0.03 0.01 0.01 0.01 0.01 0.01 0.01 0.01 0.02 0.03 0.03 0.04 0.05 0.05 0.06 0.06 0.05 0.04 0.05 0.07 0.09
0.01 0.02 0.03 0.05 0.06 0.05 0.05 0.05 0.04 0.04 0.03 0.02 0.02 0.02 0.02 0.04 0.04 0.03 0.02 0.01 0.01 0.01 0.01 0.01 0.02 0.02 0.03 0.04 0.04 0.05 0.06 0.06 0.07 0.07 0.06 0.05 0.05 0.06
0.01 0.02 0.02 0.04 0.04 0.05 0.06 0.06 0.05 0.04 0.03 0.03 0.03 0.02 0.02 0.03 0.05 0.04 0.03 0.02 0.02 0.01 0.01 0.02 0.02 0.02 0.03 0.03 0.04 0.05 0.06 0.06 0.06 0.07 0.07 0.07 0.06 0.06
0.02 0.03 0.03 0.04 0.03 0.05 0.07 0.06 0.06 0.06 0.06 0.05 0.05 0.04 0.03 0.04 0.04 0.03 0.03 0.03 0.03 0.02 0.02 0.03 0.02 0.02 0.02 0.04 0.04 0.05 0.06 0.06 0.06 0.05 0.05 0.05 0.05 0.06
0.02 0.02 0.03 0.03 0.04 0.04 0.05 0.05 0.06 0.06 0.05 0.05 0.04 0.03 0.03 0.04 0.03 0.02 0.02 0.03 0.03 0.03 0.05 0.05 0.03 0.03 0.04 0.04 0.05 0.06 0.07 0.07 0.06 0.05 0.04 0.03 0.03 0.03
0.02 0.02 0.02 0.03 0.03 0.03 0.04 0.05 0.06 0.06 0.06 0.05 0.05 0.04 0.03 0.03 0.04 0.04 0.04 0.05 0.04 0.05 0.07 0.07 0.05 0.04 0.05 0.06 0.05 0.05 0.06 0.06 0.06 0.06 0.05 0.04 0.04 0.03
0.02 0.02 0.03 0.03 0.03 0.04 0.04 0.03 0.03 0.04 0.05 0.05 0.04 0.04 0.03 0.03 0.03 0.03 0.04 0.06 0.04 0.03 0.05 0.07 0.07 0.05 0.04 0.06 0.07 0.06 0.05 0.06 0.06 0.06 0.05 0.04 0.04 0.03
0.03 0.03 0.04 0.03 0.03 0.04 0.04 0.03 0.03 0.03 0.04 0.05 0.05 0.05 0.05 0.04 0.03 0.03 0.04 0.05 0.04 0.02 0.03 0.06 0.08 0.08 0.07 0.06 0.07 0.08 0.07 0.05 0.05 0.05 0.05 0.04 0.03 0.03
0.02 0.03 0.03 0.02 0.03 0.03 0.03 0.02 0.02 0.02 0.03 0.03 0.04 0.05 0.05 0.03 0.03 0.03 0.04 0.06 0.05 0.03 0.02 0.03 0.06 0.07 0.07 0.06 0.06 0.07 0.07 0.06 0.04 0.03 0.03 0.03 0.02 0.01
0.02 0.02 0.02 0.02 0.02 0.03 0.03 0.02 0.02 0.02 0.03 0.03 0.03 0.03 0.05 0.05 0.04 0.04 0.03 0.05 0.05 0.05 0.04 0.05 0.06 0.06 0.06 0.05 0.04 0.04 0.05 0.05 0.04 0.03 0.02 0.02 0.01 0.01
0.02 0.02 0.03 0.03 0.02 0.02 0.02 0.02 0.03 0.03 0.04 0.04 0.04 0.03 0.04 0.05 0.05 0.05 0.04 0.04 0.05 0.05 0.04 0.04 0.07 0.07 0.06 0.05 0.03 0.03 0.03 0.04 0.04 0.03 0.02 0.01 0.01 0.01
0.02 0.02 0.02 0.02 0.02 0.01 0.02 0.03 0.04 0.04 0.05 0.04 0.03 0.02 0.02 0.03 0.05 0.05 0.04 0.03 0.03 0.04 0.05 0.04 0.06 0.08 0.09 0.08 0.05 0.03 0.03 0.03 0.03 0.02 0.02 0.02 0.01 0.01
0.01 0.01 0.01 0.01 0.01 0.01 0.02 0.03 0.04 0.03 0.04 0.04 0.02 0.02 0.02 0.03 0.04 0.05 0.05 0.04 0.04 0.06 0.06 0.07 0.07 0.07 0.08 0.07 0.06 0.05 0.04 0.04 0.04 0.03 0.02 0.02 0.01 0.01
0.01 0.01 0.01 0.01 0.02 0.02 0.03 0.04 0.04 0.04 0.03 0.03 0.03 0.03 0.03 0.04 0.05 0.06 0.06 0.05 0.06 0.06 0.06 0.06 0.05 0.06 0.06 0.06 0.06 0.05 0.04 0.03 0.03 0.03 0.02 0.02 0.01 0.01
0.01 0.01 0.02 0.02 0.03 0.03 0.03 0.04 0.05 0.05 0.04 0.04 0.04 0.04 0.05 0.05 0.06 0.07 0.06 0.04 0.05 0.06 0.05 0.04 0.05 0.07 0.07 0.07 0.06 0.07 0.06 0.04 0.03 0.03 0.02 0.02 0.01 0.01
0.02 0.02 0.02 0.03 0.03 0.02 0.02 0.02 0.03 0.03 0.04 0.04 0.05 0.05 0.05 0.05 0.06 0.06 0.06 0.04 0.04 0.04 0.06 0.06 0.05 0.06 0.08 0.08 0.07 0.06 0.06 0.05 0.04 0.03 0.02 0.02 0.02 0.01
0.02 0.02 0.02 0.02 0.01 0.01 0.01 0.02 0.02 0.01 0.02 0.03 0.04 0.04 0.05 0.06 0.06 0.05 0.05 0.05 0.05 0.04 0.06 0.09 0.11 0.08 0.06 0.07 0.07 0.05 0.04 0.05 0.05 0.04 0.03 0.02 0.02 0.02
0.02 0.02 0.02 0.01 0.01 0.01 0.01 0.01 0.01 0.02 0.02 0.03 0.04 0.04 0.04 0.06 0.05 0.04 0.04 0.05 0.05 0.05 0.07 0.09 0.11 0.11 0.07 0.06 0.06 0.05 0.03 0.03 0.04 0.04 0.04 0.04 0.03 0.03
0.01 0.01 0.01 0.01 0.01 0.01 0.00 0.00 0.01 0.01 0.01 0.01 0.02 0.02 0.02 0.03 0.03 0.02 0.02 0.03 0.04 0.04 0.05 0.06 0.07 0.08 0.07 0.06 0.05 0.03 0.03 0.03 0.04 0.04 0.05 0.05 0.04 0.04
0.00 0.00 0.00 0.00 0.00 0.00 0.00 0.00 0.00 0.01 0.01 0.01 0.01 0.01 0.01 0.01 0.01 0.01 0.01 0.02 0.02 0.03 0.03 0.04 0.05 0.05 0.04 0.03 0.03 0.02 0.02 0.03 0.04 0.05 0.05 0.05 0.05 0.05
MSLP
1012.64 1012.81 1012.96 1013.06 1013.10 1013.05 1012.91 1012.70 1012.45 1012.16 1011.89 1011.63 1011.41 1011.21 1011.04 1010.88 1010.73 1010.57 1010.42 1010.27 1010.15 1010.05 1009.99 1009.98 1010.01 1010.09 1010.20 1010.33 1010.47 1010.62 1010.76 1010.89 1011.00 1011.08 1011.14 1011.17 1011.17 1011.14
1012.21 1012.31 1012.40 1012.45 1012.44 1012.35 1012.20 1012.00 1011.75 1011.48 1011.22 1010.97 1010.74 1010.53 1010.34 1010.14 1009.96 1009.76 1009.58 1009.41 1009.26 1009.16 1009.09 1009.08 1009.12 1009.19 1009.30 1009.43 1009.58 1009.72 1009.86 1009.99 1010.10 1010.20 1010.28 1010.33 1010.36 1010.37
1011.62 1011.64 1011.66 1011.64 1011.59 1011.49 1011.34 1011.14 1010.92 1010.68 1010.44 1010.21 1009.98 1009.76 1009.55 1009.33 1009.11 1008.88 1008.67 1008.48 1008.32 1008.20 1008.14 1008.13 1008.17 1008.25 1008.36 1008.48 1008.62 1008.75 1008.88 1009.01 1009.14 1009.25 1009.35 1009.44 1009.51 1009.56
1010.91 1010.85 1010.79 1010.72 1010.63 1010.51 1010.36 1010.19 1010.00 1009.79 1009.58 1009.37 1009.15 1008.92 1008.69 1008.44 1008.19 1007.94 1007.71 1007.50 1007.33 1007.22 1007.15 1007.14 1007.18 1007.25 1007.35 1007.46 1007.58 1007.70 1007.83 1007.96 1008.09 1008.22 1008.36 1008.49 1008.61 1008.72
1010.13 1009.99 1009.86 1009.74 1009.62 1009.49 1009.35 1009.20 1009.03 1008.86 1008.67 1008.47 1008.25 1008.02 1007.76 1007.50 1007.23 1006.96 1006.71 1006.50 1006.32 1006.20 1006.14 1006.12 1006.14 1006.20 1006.28 1006.37 1006.47 1006.58 1006.70 1006.82 1006.97 1007.12 1007.30 1007.48 1007.66 1007.84
1009.35 1009.15 1008.96 1008.80 1008.65 1008.50 1008.36 1008.22 1008.06 1007.90 1007.73 1007.53 1007.31 1007.06 1006.80 1006.52 1006.24 1005.96 1005.71 1005.49 1005.32 1005.20 1005.13 1005.10 1005.10 1005.13 1005.18 1005.24 1005.31 1005.39 1005.49 1005.62 1005.78 1005.96 1006.17 1006.40 1006.64 1006.88
1008.65 1008.39 1008.16 1007.96 1007.77 1007.60 1007.45 1007.30 1007.14 1006.97 1006.79 1006.58 1006.35 1006.09 1005.82 1005.54 1005.25 1004.98 1004.74 1004.54 1004.37 1004.24 1004.16 1004.10 1004.08 1004.06 1004.07 1004.08 1004.12 1004.17 1004.26 1004.39 1004.55 1004.76 1005.00 1005.28 1005.57 1005.87
1008.09 1007.79 1007.52 1007.28 1007.06 1006.86 1006.67 1006.49 1006.30 1006.10 1005.89 1005.66 1005.41 1005.15 1004.87 1004.60 1004.33 1004.08 1003.85 1003.66 1003.50 1003.37 1003.26 1003.17 1003.10 1003.04 1002.99 1002.96 1002.95 1002.98 1003.04 1003.16 1003.34 1003.56 1003.83 1004.14 1004.47 1004.80
1007.70 1007.38 1007.08 1006.80 1006.54 1006.30 1006.06 1005.83 1005.59 1005.35 1005.10 1004.83 1004.56 1004.28 1004.01 1003.75 1003.50 1003.28 1003.08 1002.89 1002.74 1002.59 1002.46 1002.32 1002.20 1002.08 1001.97 1001.89 1001.84 1001.84 1001.88 1002.00 1002.18 1002.42 1002.70 1003.03 1003.37 1003.72
1007.53 1007.20 1006.88 1006.56 1006.26 1005.96 1005.66 1005.36 1005.06 1004.76 1004.45 1004.14 1003.84 1003.56 1003.29 1003.04 1002.82 1002.62 1002.43 1002.26 1002.10 1001.92 1001.75 1001.56 1001.38 1001.20 1001.03 1000.90 1000.81 1000.78 1000.82 1000.94 1001.12 1001.36 1001.65 1001.98 1002.32 1002.67
1007.56 1007.23 1006.89 1006.55 1006.20 1005.84 1005.48 1005.12 1004.74 1004.37 1004.00 1003.65 1003.32 1003.02 1002.74 1002.50 1002.30 1002.11 1001.93 1001.75 1001.56 1001.35 1001.12 1000.87 1000.62 1000.37 1000.15 999.98 999.86 999.83 999.87 999.99 1000.18 1000.42 1000.71 1001.03 1001.36 1001.69
1007.80 1007.46 1007.11 1006.74 1006.35 1005.94 1005.52 1005.08 1004.64 1004.20 1003.78 1003.37 1003.01 1002.68 1002.40 1002.16 1001.94 1001.74 1001.54 1001.33 1001.09 1000.82 1000.52 1000.20 999.87 999.57 999.30 999.10 998.98 998.94 999.00 999.14 999.34 999.60 999.89 1000.19 1000.49 1000.79
1008.20 1007.86 1007.49 1007.10 1006.67 1006.22 1005.75 1005.26 1004.75 1004.25 1003.77 1003.32 1002.91 1002.56 1002.24 1001.98 1001.73 1001.49 1001.25 1000.98 1000.66 1000.31 999.92 999.52 999.12 998.76 998.45 998.23 998.11 998.10 998.18 998.35 998.59 998.87 999.16 999.44 999.72 999.98
1008.71 1008.37 1007.99 1007.58 1007.13 1006.65 1006.14 1005.60 1005.04 1004.49 1003.96 1003.46 1003.02 1002.62 1002.26 1001.94 1001.64 1001.34 1001.02 1000.66 1000.24 999.79 999.30 998.81 998.34 997.91 997.58 997.35 997.24 997.26 997.39 997.60 997.88 998.18 998.49 998.77 999.03 999.26
1009.30 1008.95 1008.56 1008.14 1007.68 1007.18 1006.63 1006.06 1005.48 1004.89 1004.32 1003.77 1003.28 1002.82 1002.41 1002.02 1001.64 1001.25 1000.82 1000.36 999.83 999.26 998.66 998.07 997.52 997.04 996.68 996.45 996.36 996.41 996.59 996.85 997.17 997.52 997.84 998.14 998.39 998.61
1009.91 1009.55 1009.16 1008.73 1008.26 1007.75 1007.19 1006.60 1005.99 1005.38 1004.77 1004.19 1003.64 1003.13 1002.65 1002.18 1001.71 1001.21 1000.67 1000.08 999.43 998.74 998.03 997.34 996.71 996.18 995.78 995.54 995.47 995.55 995.77 996.08 996.45 996.84 997.20 997.52 997.78 998.00
1010.50 1010.14 1009.74 1009.31 1008.84 1008.33 1007.76 1007.17 1006.55 1005.91 1005.28 1004.66 1004.07 1003.50 1002.95 1002.40 1001.83 1001.22 1000.57 999.85 999.08 998.27 997.46 996.67 995.96 995.37 994.94 994.68 994.62 994.72 994.96 995.31 995.72 996.14 996.54 996.90 997.18 997.42
1011.06 1010.70 1010.30 1009.87 1009.40 1008.89 1008.33 1007.73 1007.10 1006.45 1005.79 1005.15 1004.52 1003.90 1003.28 1002.65 1001.99 1001.29 1000.53 999.70 998.82 997.91 997.00 996.13 995.35 994.70 994.22 993.94 993.85 993.95 994.20 994.56 995.00 995.45 995.89 996.28 996.60 996.87
1011.60 1011.23 1010.84 1010.41 1009.94 1009.43 1008.86 1008.26 1007.62 1006.96 1006.29 1005.62 1004.95 1004.29 1003.62 1002.92 1002.20 1001.41 1000.57 999.66 998.69 997.69 996.70 995.76 994.91 994.21 993.68 993.35 993.23 993.30 993.54 993.90 994.33 994.80 995.26 995.68 996.04 996.36
1012.12 1011.75 1011.36 1010.94 1010.47 1009.95 1009.38 1008.77 1008.12 1007.44 1006.76 1006.07 1005.37 1004.67 1003.96 1003.22 1002.44 1001.60 1000.70 999.72 998.70 997.64 996.60 995.60 994.70 993.94 993.36 992.98 992.81 992.83 993.03 993.36 993.77 994.23 994.70 995.14 995.54 995.90
1012.65 1012.30 1011.91 1011.48 1011.00 1010.47 1009.89 1009.26 1008.60 1007.90 1007.20 1006.49 1005.78 1005.06 1004.32 1003.55 1002.73 1001.86 1000.92 999.91 998.85 997.77 996.69 995.66 994.72 993.92 993.28 992.85 992.62 992.59 992.72 993.00 993.37 993.80 994.25 994.69 995.12 995.50
1013.22 1012.88 1012.49 1012.06 1011.56 1011.00 1010.40 1009.75 1009.06 1008.36 1007.64 1006.91 1006.18 1005.44 1004.68 1003.90 1003.07 1002.18 1001.23 1000.21 999.14 998.05 996.96 995.92 994.96 994.14 993.47 992.99 992.70 992.60 992.68 992.88 993.19 993.57 993.98 994.40 994.82 995.22
1013.84 1013.51 1013.12 1012.66 1012.14 1011.56 1010.93 1010.26 1009.54 1008.82 1008.08 1007.34 1006.60 1005.85 1005.08 1004.29 1003.46 1002.57 1001.62 1000.61 999.56 998.48 997.41 996.38 995.43 994.60 993.92 993.41 993.08 992.92 992.92 993.05 993.29 993.60 993.95 994.33 994.70 995.08
Thickness
5617 5615 5613 5612 5609 5607 5605 5603 5602 5603 5605 5607 5607 5609 5608 5609 5609 5609 5610 5611 5611 5612 5613 5615 5617 5619 5620 5622 5625 5627 5628 5630 5631 5632 5634 5636 5638 5639
5611 5609 5607 5606 5604 5602 5600 5598 5596 5596 5597 5600 5600 5602 5602 5602 5602 5602 5603 5604 5605 5606 5607 5609 5611 5612 5614 5616 5618 5620 5622 5623 5624 5626 5628 5630 5632 5633
5605 5603 5602 5600 5598 5597 5595 5593 5591 5589 5589 5593 5593 5594 5593 5594 5595 5595 5596 5597 5598 5600 5601 5602 5604 5605 5607 5608 5610 5612 5615 5616 5618 5619 5621 5624 5625 5627
5600 5597 5596 5595 5593 5591 5589 5587 5585 5583 5583 5584 5586 5586 5586 5587 5587 5588 5589 5591 5591 5593 5594 5596 5597 5598 5600 5601 5603 5605 5607 5609 5611 5613 5616 5618 5619 5621
5594 5592 5590 5589 5587 5585 5583 5581 5580 5579 5577 5576 5578 5578 5579 5579 5579 5581 5582 5583 5585 5586 5588 5589 5591 5592 5593 5594 5596 5598 5600 5602 5605 5607 5609 5611 5612 5614
5589 5587 5586 5584 5581 5579 5578 5576 5574 5572 5571 5570 5570 5570 5571 5571 5570 5572 5575 5575 5577 5579 5581 5582 5583 5584 5586 5588 5590 5591 5593 5595 5597 5600 5602 5603 5605 5607
5586 5584 5582 5579 5577 5574 5572 5570 5568 5566 5564 5564 5564 5563 5563 5563 5563 5564 5566 5567 5569 5570 5572 5574 5575 5577 5578 5580 5583 5585 5587 5588 5590 5593 5594 5596 5597 5599
5582 5579 5577 5574 5571 5568 5566 5564 5562 5560 5558 5557 5556 5556 5557 5557 5556 5556 5557 5558 5561 5563 5562 5566 5567 5569 5571 5573 5576 5579 5580 5582 5584 5586 5587 5590 5591 5593
5577 5574 5572 5569 5565 5562 5560 5558 5556 5554 5552 5550 5549 5549 5549 5550 5549 5549 5549 5550 5552 5554 5553 5557 5559 5562 5565 5567 5569 5572 5574 5576 5578 5579 5581 5583 5585 5588
5571 5568 5564 5562 5559 5555 5553 5551 5549 5547 5545 5543 5543 5543 5542 5541 5541 5541 5541 5542 5544 5545 5545 5548 5552 5555 5558 5560 5563 5566 5568 5570 5572 5574 5576 5577 5579 5581
5566 5562 5558 5554 5550 5547 5545 5543 5541 5540 5538 5537 5536 5536 5535 5534 5533 5533 5533 5535 5538 5540 5538 5540 5545 5547 5550 5554 5557 5560 5562 5564 5566 5568 5570 5572 5572 5573
5560 5556 5551 5547 5543 5539 5537 5534 5532 5531 5529 5529 5529 5529 5528 5529 5528 5527 5528 5528 5530 5532 5534 5533 5537 5539 5543 5547 5550 5553 5555 5557 5560 5562 5564 5565 5566 5567
5553 5549 5545 5540 5536 5532 5529 5525 5522 5521 5520 5520 5521 5522 5522 5522 5522 5521 5521 5522 5524 5526 5528 5527 5530 5532 5534 5539 5542 5545 5548 5551 5554 5556 5558 5560 5561 5563
5546 5542 5537 5532 5529 5525 5522 5519 5516 5515 5514 5514 5514 5514 5515 5515 5515 5515 5516 5516 5518 5520 5522 5522 5524 5526 5527 5530 5535 5538 5540 5544 5547 5550 5552 5554 5555 5557
5540 5535 5531 5527 5523 5520 5516 5513 5511 5509 5508 5507 5507 5507 5506 5507 5508 5509 5510 5511 5513 5515 5516 5517 5518 5520 5522 5524 5528 5531 5533 5537 5540 5543 5545 5548 5550 5552
5536 5530 5526 5522 5518 5514 5511 5508 5505 5502 5500 5499 5499 5499 5500 5500 5501 5502 5503 5504 5506 5509 5511 5512 5513 5515 5517 5520 5522 5525 5528 5530 5534 5536 5539 5541 5544 5547
5531 5526 5522 5517 5514 5510 5506 5503 5500 5497 5494 5493 5492 5493 5493 5494 5494 5494 5494 5496 5498 5501 5504 5505 5507 5509 5512 5515 5518 5521 5523 5525 5528 5530 5532 5536 5539 5542
5527 5521 5516 5511 5507 5504 5500 5498 5495 5491 5488 5486 5485 5484 5485 5486 5487 5487 5488 5489 5491 5493 5495 5498 5500 5504 5508 5511 5513 5516 5518 5520 5522 5523 5526 5529 5533 5536
5522 5516 5510 5506 5501 5498 5494 5491 5488 5484 5481 5479 5478 5477 5477 5477 5478 5480 5481 5482 5484 5486 5488 5489 5493 5497 5501 5506 5508 5508 5511 5514 5515 5517 5519 5523 5527 5531
5517 5511 5506 5501 5496 5492 5489 5485 5482 5480 5477 5474 5473 5471 5470 5470 5471 5472 5474 5475 5477 5479 5482 5484 5486 5489 5492 5496 5499 5501 5503 5507 5509 5511 5513 5515 5519 5522
5512 5506 5501 5496 5492 5488 5484 5481 5478 5475 5472 5469 5468 5465 5464 5463 5464 5465 5467 5468 5470 5474 5476 5479 5480 5482 5485 5488 5492 5495 5497 5499 5502 5505 5507 5510 5513 5517
5507 5502 5497 5493 5488 5485 5481 5478 5474 5471 5468 5465 5462 5461 5459 5458 5458 5459 5461 5463 5465 5468 5471 5474 5476 5479 5481 5483 5486 5488 5490 5493 5495 5497 5499 5503 5508 5512
5503 5498 5493 5489 5485 5481 5477 5474 5470 5467 5463 5459 5457 5455 5454 5453 5453 5453 5455 5457 5460 5463 5466 5469 5471 5473 5476 5477 5479 5481 5484 5486 5489 5491 5493 5495 5498 5502